#timestamp,LO_Frequency,Hit,StdDev 
1648854015.8,286047002.6,Y
1648854035.6,286047001.1,P
1648854055.5,286047000.2,N
1648854075.3,286047000.9,N
1648854095.1,286047000.7,N
1648854115.9,286047000.5,N
1648854135.7,286047002.7,Y
1648854155.6,286046999.9,P
1648854175.4,286047000.7,N
1648854195.2,286047000.4,N
1648854215.1,286047000.6,N
1648854216.0,286047000.6,N
1648854235.8,286047000.6,N
1648854255.7,286047000.9,Y
1648854275.5,286047000.8,P
1648854295.3,286047001.1,P
1648854315.2,286046999.2,P
1648854335.0,286046997.8,Y
1648854335.9,286046997.8,P
1648854355.7,286046996.6,N
1648854375.6,286046996.9,N
1648854395.4,286046997.1,N
1648854415.3,286046996.7,N
1648854435.1,286046999.3,N
1648854436.0,286046999.3,N
1648854455.8,286046999.2,N
1648854475.7,286047001.0,N
1648854495.5,286046998.6,N
1648854515.4,286046999.5,N
1648854535.2,286046998.0,N
1648854555.0,286046999.6,N
1648854555.9,286046999.6,N
1648854575.8,286046997.8,N
1648854595.6,286046995.4,Y
1648854615.5,286046996.5,P
1648854635.3,286046999.0,N
1648854655.1,286046998.3,N
1648854675.9,286047000.4,N
1648854695.7,286046998.8,N
1648854715.5,286046999.6,N
1648854735.4,286046999.3,N
1648854755.2,286046999.2,N
1648854775.1,286046998.6,N
1648854776.0,286046998.6,N
1648854795.8,286046998.8,N
1648854815.6,286047001.0,N
1648854835.5,286046998.1,N
1648854855.3,286047000.6,N
1648854875.2,286047000.3,N
1648854895.9,286047000.5,N
1648854915.7,286046998.5,N
1648854935.6,286046998.5,N
1648854955.4,286046998.7,N
1648854975.2,286047001.2,N
1648854995.1,286047001.1,N
1648854996.0,286047001.1,N
1648855015.8,286046999.1,N
1648855035.7,286047001.2,N
1648855055.5,286046998.1,N
1648855075.3,286046998.1,N
1648855095.2,286047000.8,N
1648855115.9,286047000.3,N
1648855135.7,286047002.1,N
1648855155.6,286047002.7,N
1648855175.4,286047000.5,N
1648855195.2,286047000.7,N
1648855215.1,286046998.1,N
1648855216.0,286046998.1,N
1648855235.8,286047001.1,N
1648855255.7,286047000.1,N
1648855275.5,286047001.1,N
1648855295.3,286047000.0,N
1648855315.2,286047000.4,N
1648855335.0,286047000.4,N
1648855335.9,286047000.4,N
1648855355.8,286047000.6,N
1648855375.6,286047001.0,N
1648855395.4,286047000.1,N
1648855415.3,286046998.3,N
1648855435.1,286046998.5,N
1648855455.8,286046998.6,N
1648855475.7,286047000.8,N
1648855495.5,286046999.3,N
1648855515.3,286046999.6,N
1648855535.2,286046997.0,N
1648855555.0,286046998.7,N
1648855555.9,286046998.7,N
1648855575.8,286046998.7,N
1648855595.6,286047001.1,N
1648855615.4,286047001.1,N
1648855635.3,286047001.3,N
1648855655.1,286047003.3,N
1648855675.8,286047003.6,N
1648855695.7,286047001.3,N
1648855715.5,286046999.8,N
1648855735.4,286047001.5,N
1648855755.2,286047002.8,N
1648855775.0,286047000.0,N
1648855775.9,286047000.0,N
1648855795.8,286046998.5,N
1648855815.6,286047002.8,N
1648855835.4,286047002.2,N
1648855855.3,286047000.4,N
1648855875.1,286046999.8,N
1648855895.9,286047000.2,N
1648855915.7,286047002.4,N
1648855935.5,286047002.8,N
1648855955.4,286047001.7,N
1648855975.2,286047000.2,N
1648855995.0,286047000.9,N
1648855996.0,286047000.9,N
1648856015.8,286047001.0,N
1648856035.6,286047000.6,N
1648856055.5,286047000.6,N
1648856075.3,286047001.2,N
1648856095.1,286047001.2,N
1648856115.9,286046999.0,N
1648856135.7,286046998.2,N
1648856155.5,286047000.4,N
1648856175.4,286047000.1,N
1648856195.2,286046999.1,N
1648856215.1,286046998.5,N
1648856216.0,286046998.5,N
1648856235.8,286046998.5,N
1648856255.6,286047001.2,N
1648856275.5,286046998.9,N
1648856295.3,286047002.2,N
1648856315.1,286046999.9,N
1648856335.9,286046998.9,N
1648856355.7,286046998.7,N
1648856375.6,286046998.3,N
1648856395.4,286047000.6,N
1648856415.2,286047000.4,N
1648856435.1,286047000.2,N
1648856436.0,286047000.2,N
1648856455.8,286047001.4,N
1648856475.7,286046999.8,N
1648856495.5,286046999.9,N
1648856515.3,286047002.4,N
1648856535.2,286047000.4,N
1648856555.0,286047000.2,N
1648856555.9,286047000.2,N
1648856575.7,286047002.6,N
1648856595.6,286047002.6,N
1648856615.4,286047002.7,N
1648856635.3,286047002.7,N
1648856655.1,286047001.9,N
1648856675.9,286047004.4,Y
1648856695.7,286047001.6,P
1648856715.5,286047004.4,P
1648856735.4,286047001.5,N
1648856755.2,286047001.9,N
1648856775.1,286047002.5,N
1648856776.0,286047002.5,N
1648856795.8,286047002.4,N
1648856815.6,286047002.4,N
1648856835.5,286047002.2,N
1648856855.3,286047002.1,N
1648856875.2,286047000.2,N
1648856895.9,286047000.4,N
1648856915.7,286047000.9,N
1648856935.6,286047000.6,N
1648856955.4,286046998.2,N
1648856975.2,286046998.2,N
1648856995.1,286046999.3,N
1648856996.0,286046999.3,N
1648857015.8,286046999.4,N
1648857035.7,286046999.4,N
1648857055.5,286046998.4,N
1648857075.3,286046998.1,N
1648857095.2,286046999.0,N
1648857115.0,286046999.1,N
1648857115.9,286046999.1,N
1648857135.7,286046996.6,N
1648857155.6,286046999.5,N
1648857175.4,286046998.3,N
1648857195.3,286046997.2,N
1648857215.1,286046999.3,N
1648857235.8,286046999.6,N
1648857255.7,286047001.1,N
1648857275.5,286047002.7,N
1648857295.4,286047000.7,N
1648857315.2,286047000.5,N
1648857335.0,286046998.8,N
1648857335.9,286046998.8,N
1648857355.8,286046998.9,N
1648857375.6,286046999.0,N
1648857395.5,286046999.4,N
1648857415.3,286046999.1,N
1648857435.1,286046998.2,N
1648857455.9,286046998.3,N
1648857475.7,286046998.3,N
1648857495.5,286047000.5,N
1648857515.4,286047001.2,N
1648857535.2,286047000.4,N
1648857555.1,286046999.7,N
1648857556.0,286046999.7,N
1648857575.8,286047000.6,N
1648857595.6,286047000.3,N
